FENGYUN 1C DEB

Satellite information

Favourite Embed

Satellite Type and Status

DEBRISIN ORBIT

Key statistics

Satellite FENGYUN 1C DEB at a glance.

Uptime

9494

Days in orbit

Revolutions

≈ 14.2

Per day

Orbit

SSO

Sun Synchronous Orbit

Inclination

99.1

Latest

Satellite identification and parameters

Extended collection of information and parameters for FENGYUN 1C DEB.

Object identification

Identified? True

Debris? True

Object name: FENGYUN 1C DEB

International designator: 1999-025DJL

Object number (NORAD): 33747

Object ID (CCSDS): 33747

Country: PEOPLES REPUBLIC OF CHINA (PRC)

Current information (Y/N): Y

RCS size: SMALL

Orbital parameters

Period: 101.746 minutes

Inclination: 99.0925 deg

SMA: 7219.447 km

Apoapsis: 909.447 km

Periapsis: 773.177 km

RAAN: 212.0773 deg

Eccentricy: 0.0094377

Argument of periapsis: 134.7892 deg

Mean anomaly: 226.1005 deg

Mean motion: 14.15294557 rev/day

Mean motion (dot): 0.00008178 rev/day2

B* drag term: 0.0040428 1/REarth

Two-line elements (TLE)

Creation date: May 4, 2025, 2:16 p.m.

Reference frame: TEME

Reference center: EARTH

Epoch: May 2, 2025, 4:33 a.m. UTC

TLE line 0: 0 FENGYUN 1C DEB

TLE line 1: 1 33747U 99025DJL 25122.19025115 .00008178 00000-0 40428-2 0 9999

TLE line 2: 2 33747 99.0925 212.0773 0094377 134.7892 226.1005 14.15294557869547

Live tracking on map

Real-time ground track for satellite FENGYUN 1C DEB.

In-orbit conjunctions

A list of the most updated potential collisions computed for object FENGYUN 1C DEB.

Target Orbit TCA Probability of collision Miss distance Type
COSMOS 2150 LEO 2025-02-01 12:11:22 0.0002138876 459.0 (m) PAYLOAD

Associated space launch

Chinese polar orbiting meteorological satellite

FENGYUN 1C DEB was lifted into orbit during the mission ‘Long March 4B | Feng Yun 1C’, on board a Long March 4B space rocket.

The launch took place on May 10, 1999, 1:33 a.m. from Launch Complex 7.

For more information about the launch, click the button.

Launch to space Long March 4B | Feng Yun 1C
Long March 4B | Feng Yun 1C

Agency: N/A

Status: Launch Successful

Launch date: May 10, 1999, 1:33 a.m. UTC

Rocket: Long March 4B

Launch pad: Launch Complex 7

Location: Taiyuan Satellite Launch Center, People's Republic of China

...

Latest news about this satellite

There are no fresh news available about this satellite. Check back as we update our databases every day.


Newsletter sign-up

Weekly statistics, charts and insights to help you stay on top of the space industry.